Terug naar catalogus

FENGYUN 1C DEB

ActiefSSO
NORAD 31716·DEBRIS·🇨🇳 China

Gelanceerd May 10, 1999 vanaf Taiyuan Satellite Launch Center

Loading…

Volgende Passages (komende 24 uur)

TLE

VersSource: Space-Track

Epoch: Sep 14, 2026, 15:52 UTC

1 31716U 99025CDP 26257.66171422  .00001256  00000-0  74983-3 0  9992
2 31716  98.5390 145.5258 0130970  34.0651 355.7660 14.04699227979925

Volg FENGYUN 1C DEB in realtime met AllMySat

Download on the App Store